When you browse on this site, cookies collect data to enhance your experience and personalize the content and advertising you see.
Visit our Privacy Policy to learn more. By continuing to use the site, you agree to this use of cookies and data.
  • In Romania
  • List of Countries
  • For 7 days
  • Water Temperature
  • Satellite Maps
  • Weather Map
  • Weather Widgets
  • user-avatar
    Login

    Hourly Weather Karavaevo

    Today, 19 February, Tuesday

    Time Temperature Precipitation Wind Pressure Humidity
    00:00 -9°C° 0 mm 3 mps 750 mmHg 83%
    01:00 -9°C° 0 mm 4 mps 750 mmHg 79%
    02:00 -10°C° 0 mm 5 mps 749 mmHg 76%
    03:00 -8°C° 0 mm 5 mps 748 mmHg 76%
    04:00 -8°C° 0 mm 5 mps 747 mmHg 77%
    05:00 -8°C° 0 mm 5 mps 746 mmHg 77%
    06:00 -8°C° 0 mm 4 mps 746 mmHg 78%
    07:00 -7°C° 0 mm 4 mps 745 mmHg 78%
    08:00 -7°C° 0 mm 4 mps 744 mmHg 79%
    09:00 -5°C° 0 mm 4 mps 744 mmHg 79%
    10:00 -3°C° 0 mm 4 mps 744 mmHg 80%
    11:00 -2°C° 0 mm 5 mps 743 mmHg 80%
    12:00 -2°C° 0 mm 5 mps 743 mmHg 82%
    13:00 -1°C° 0 mm 4 mps 743 mmHg 84%
    14:00 -1°C° 0 mm 4 mps 743 mmHg 86%
    15:00 -1°C° 0 mm 4 mps 742 mmHg 87%
    16:00 -1°C° 0 mm 4 mps 742 mmHg 88%
    17:00 0°C° 0 mm 3 mps 742 mmHg 89%
    18:00 -1°C° 0 mm 3 mps 741 mmHg 89%
    19:00 -1°C° 0 mm 3 mps 740 mmHg 90%
    20:00 -1°C° 0 mm 3 mps 740 mmHg 91%
    21:00 -1°C° 0 mm 3 mps 739 mmHg 90%
    22:00 -2°C° 0 mm 4 mps 738 mmHg 90%
    23:00 -2°C° 0 mm 4 mps 738 mmHg 90%

    Tomorrow, 20 February, Wednesday

    Time Temperature Precipitation Wind Pressure Humidity
    00:00 -2°C° 0.1 mm 4 mps 737 mmHg 90%
    01:00 -2°C° 0.1 mm 4 mps 736 mmHg 89%
    02:00 -2°C° 0.1 mm 4 mps 736 mmHg 89%
    03:00 -1°C° 0.1 mm 4 mps 735 mmHg 89%
    04:00 -1°C° 0.1 mm 4 mps 734 mmHg 89%
    05:00 -1°C° 0.1 mm 4 mps 734 mmHg 89%
    06:00 -1°C° 0.2 mm 4 mps 733 mmHg 90%
    07:00 -1°C° 0.2 mm 4 mps 733 mmHg 91%
    08:00 0°C° 0.2 mm 4 mps 733 mmHg 92%
    09:00 0°C° 0 mm 4 mps 733 mmHg 91%
    10:00 0°C° 0 mm 4 mps 733 mmHg 91%
    11:00 0°C° 0 mm 4 mps 733 mmHg 91%
    12:00 0°C° 0.1 mm 4 mps 733 mmHg 91%
    13:00 0°C° 0.1 mm 4 mps 733 mmHg 91%
    14:00 0°C° 0.1 mm 4 mps 733 mmHg 91%
    15:00 0°C° 0 mm 4 mps 733 mmHg 91%
    16:00 +1°C° 0 mm 3 mps 733 mmHg 91%
    17:00 0°C° 0 mm 3 mps 733 mmHg 91%
    18:00 0°C° 0.1 mm 3 mps 733 mmHg 91%
    19:00 0°C° 0.1 mm 3 mps 732 mmHg 91%
    20:00 0°C° 0.1 mm 3 mps 732 mmHg 92%
    21:00 0°C° 0 mm 3 mps 732 mmHg 92%
    22:00 +1°C° 0 mm 2 mps 732 mmHg 93%
    23:00 +1°C° 0 mm 2 mps 732 mmHg 94%

    Day after tomorrow, 21 February, Thursday

    Time Temperature Precipitation Wind Pressure Humidity
    00:00 -1°C° 0.1 mm 2 mps 732 mmHg 95%
    01:00 -1°C° 0.1 mm 2 mps 732 mmHg 95%
    02:00 -1°C° 0.1 mm 2 mps 732 mmHg 96%
    03:00 -1°C° 0.1 mm 2 mps 732 mmHg 95%
    04:00 -1°C° 0.1 mm 2 mps 732 mmHg 95%
    05:00 -1°C° 0.1 mm 2 mps 733 mmHg 95%
    06:00 -1°C° 0.3 mm 2 mps 733 mmHg 94%
    07:00 -1°C° 0.3 mm 3 mps 734 mmHg 94%
    08:00 -1°C° 0.3 mm 3 mps 734 mmHg 93%
    09:00 -3°C° 0.6 mm 4 mps 735 mmHg 93%
    10:00 -3°C° 0.6 mm 4 mps 736 mmHg 92%
    11:00 -4°C° 0.6 mm 5 mps 736 mmHg 92%
    12:00 -5°C° 0.4 mm 5 mps 737 mmHg 90%
    13:00 -8°C° 0.4 mm 6 mps 738 mmHg 88%
    14:00 -9°C° 0.4 mm 6 mps 739 mmHg 87%
    15:00 -10°C° 0.2 mm 6 mps 741 mmHg 85%
    16:00 -10°C° 0.2 mm 6 mps 742 mmHg 83%
    17:00 -11°C° 0.2 mm 6 mps 743 mmHg 81%
    18:00 -12°C° 0.1 mm 6 mps 744 mmHg 79%
    19:00 -12°C° 0.1 mm 6 mps 745 mmHg 77%
    20:00 -14°C° 0.1 mm 6 mps 746 mmHg 76%
    21:00 -14°C° 0 mm 6 mps 747 mmHg 76%
    22:00 -15°C° 0 mm 6 mps 748 mmHg 76%
    23:00 -16°C° 0 mm 6 mps 748 mmHg 76%

    22 February, Friday

    Time Temperature Precipitation Wind Pressure Humidity
    00:00 -16°C° 0 mm 6 mps 749 mmHg 77%
    01:00 -16°C° 0 mm 6 mps 750 mmHg 78%
    02:00 -16°C° 0 mm 6 mps 751 mmHg 79%
    03:00 -16°C° 0 mm 6 mps 751 mmHg 79%
    04:00 -16°C° 0 mm 6 mps 752 mmHg 80%
    05:00 -16°C° 0 mm 6 mps 752 mmHg 80%
    06:00 -15°C° 0 mm 5 mps 753 mmHg 80%
    07:00 -15°C° 0 mm 5 mps 753 mmHg 81%
    08:00 -15°C° 0 mm 5 mps 754 mmHg 82%
    09:00 -14°C° 0 mm 5 mps 754 mmHg 79%
    10:00 -14°C° 0 mm 6 mps 755 mmHg 75%
    11:00 -14°C° 0 mm 6 mps 755 mmHg 72%
    12:00 -12°C° 0 mm 6 mps 755 mmHg 72%
    13:00 -12°C° 0 mm 6 mps 755 mmHg 72%
    14:00 -12°C° 0 mm 6 mps 755 mmHg 72%
    15:00 -14°C° 0 mm 6 mps 756 mmHg 74%
    16:00 -14°C° 0 mm 6 mps 756 mmHg 75%
    17:00 -14°C° 0 mm 5 mps 757 mmHg 76%
    18:00 -14°C° 0 mm 5 mps 757 mmHg 77%
    19:00 -14°C° 0 mm 5 mps 758 mmHg 79%
    20:00 -14°C° 0 mm 5 mps 759 mmHg 80%
    21:00 -15°C° 0 mm 5 mps 759 mmHg 81%
    22:00 -15°C° 0 mm 5 mps 759 mmHg 82%
    23:00 -15°C° 0 mm 5 mps 760 mmHg 83%

    23 February, Saturday

    Time Temperature Precipitation Wind Pressure Humidity
    00:00 -15°C° 0 mm 4 mps 760 mmHg 85%
    01:00 -16°C° 0 mm 4 mps 760 mmHg 87%
    02:00 -15°C° 0 mm 3 mps 760 mmHg 89%
    03:00 -16°C° 0 mm 3 mps 760 mmHg 91%
    04:00 -16°C° 0 mm 3 mps 760 mmHg 92%
    05:00 -17°C° 0 mm 3 mps 760 mmHg 94%
    06:00 -16°C° 0 mm 2 mps 760 mmHg 93%
    07:00 -15°C° 0 mm 2 mps 761 mmHg 92%
    08:00 -15°C° 0 mm 2 mps 761 mmHg 92%
    09:00 -14°C° 0 mm 2 mps 761 mmHg 90%
    10:00 -13°C° 0 mm 2 mps 761 mmHg 87%
    11:00 -9°C° 0 mm 1 mps 761 mmHg 85%
    12:00 -9°C° 0 mm 1 mps 761 mmHg 84%
    13:00 -8°C° 0 mm 1 mps 761 mmHg 83%
    14:00 -7°C° 0 mm 1 mps 761 mmHg 81%
    15:00 -8°C° 0 mm 1 mps 761 mmHg 85%
    16:00 -9°C° 0 mm 1 mps 761 mmHg 88%
    17:00 -10°C° 0 mm 1 mps 761 mmHg 91%
    18:00 -10°C° 0 mm 0 mps 761 mmHg 91%
    19:00 -11°C° 0 mm 0 mps 762 mmHg 91%
    20:00 -11°C° 0 mm 0 mps 762 mmHg 90%
    21:00 -11°C° 0 mm 1 mps 762 mmHg 89%
    22:00 -11°C° 0 mm 1 mps 763 mmHg 88%
    23:00 -11°C° 0 mm 1 mps 763 mmHg 88%

    24 February, Sunday

    Time Temperature Precipitation Wind Pressure Humidity
    00:00 -12°C° 0 mm 1 mps 763 mmHg 87%
    01:00 -12°C° 0 mm 1 mps 763 mmHg 87%
    02:00 -12°C° 0 mm 1 mps 763 mmHg 87%
    03:00 -12°C° 0 mm 1 mps 763 mmHg 86%
    04:00 -12°C° 0 mm 1 mps 763 mmHg 86%
    05:00 -14°C° 0 mm 2 mps 763 mmHg 85%
    06:00 -13°C° 0 mm 2 mps 763 mmHg 83%
    07:00 -13°C° 0 mm 2 mps 763 mmHg 80%
    08:00 -13°C° 0 mm 3 mps 762 mmHg 78%
    09:00 -12°C° 0 mm 3 mps 762 mmHg 78%
    10:00 -9°C° 0 mm 3 mps 762 mmHg 78%
    11:00 -8°C° 0 mm 3 mps 761 mmHg 78%
    12:00 -7°C° 0 mm 3 mps 761 mmHg 79%
    13:00 -7°C° 0 mm 4 mps 760 mmHg 80%
    14:00 -5°C° 0 mm 4 mps 759 mmHg 81%
    15:00 -5°C° 0 mm 4 mps 759 mmHg 82%
    16:00 -7°C° 0 mm 4 mps 758 mmHg 83%
    17:00 -7°C° 0 mm 4 mps 757 mmHg 84%
    18:00 -7°C° 0 mm 4 mps 756 mmHg 84%
    19:00 -7°C° 0 mm 5 mps 755 mmHg 83%
    20:00 -7°C° 0 mm 5 mps 754 mmHg 83%
    21:00 -7°C° 0.1 mm 5 mps 753 mmHg 85%
    22:00 -7°C° 0.1 mm 5 mps 752 mmHg 86%
    23:00 -7°C° 0.1 mm 5 mps 751 mmHg 88%
    Show more